VXP612 KALB-KRDU

Flight info

Callsign VXP612
Flight time N/A
Altitude 30000
Route PWL BIZEX Q75 GVE MELTN ALDAN4
Aircraft B738/M-SDE2E3FGHIRWXY/LB1

Departure

Time 2026-05-07 00:40
Airport Albany International Airport (KALB)

Arrival

Time N/A
Airport Raleigh-Durham International Airport (KRDU)
Time Latitude Longitude Altitude Speed Heading
2026-05-07 00:12 42.74649 -73.80791 277 ft 0 kts 320°
2026-05-07 00:25 42.74641 -73.80784 277 ft 2 kts 323°
2026-05-07 00:25 42.74630 -73.80771 277 ft 2 kts 319°
2026-05-07 00:25 42.74618 -73.80758 277 ft 2 kts 320°
2026-05-07 00:26 42.74607 -73.80746 277 ft 1 kts 333°
2026-05-07 00:26 42.74594 -73.80742 278 ft 1 kts
2026-05-07 00:26 42.74580 -73.80746 278 ft 1 kts 27°
2026-05-07 00:26 42.74570 -73.80757 278 ft 1 kts 53°
2026-05-07 00:27 42.74564 -73.80774 278 ft 1 kts 78°
2026-05-07 00:27 42.74563 -73.80783 278 ft 1 kts 93°
2026-05-07 00:27 42.74563 -73.80789 278 ft 0 kts 89°
2026-05-07 00:31 42.74563 -73.80787 278 ft 0 kts 89°
2026-05-07 00:31 42.74563 -73.80778 278 ft 0 kts 88°
2026-05-07 00:31 42.74564 -73.80759 278 ft 3 kts 87°
2026-05-07 00:32 42.74565 -73.80725 278 ft 4 kts 87°
2026-05-07 00:32 42.74567 -73.80682 279 ft 4 kts 86°
2026-05-07 00:32 42.74564 -73.80642 279 ft 3 kts 114°
2026-05-07 00:32 42.74543 -73.80617 280 ft 4 kts 158°
2026-05-07 00:33 42.74499 -73.80609 280 ft 8 kts 177°
2026-05-07 00:33 42.74431 -73.80605 280 ft 11 kts 178°
2026-05-07 00:33 42.74338 -73.80602 281 ft 14 kts 178°
2026-05-07 00:33 42.74227 -73.80597 282 ft 16 kts 178°
2026-05-07 00:34 42.74122 -73.80593 283 ft 14 kts 178°
2026-05-07 00:34 42.74003 -73.80588 284 ft 19 kts 178°
2026-05-07 00:34 42.73862 -73.80581 285 ft 19 kts 178°
2026-05-07 00:34 42.73750 -73.80576 286 ft 6 kts 174°
2026-05-07 00:35 42.73728 -73.80541 286 ft 1 kts 96°
2026-05-07 00:35 42.73728 -73.80540 286 ft 0 kts 96°
2026-05-07 00:36 42.73728 -73.80534 286 ft 2 kts 95°
2026-05-07 00:36 42.73727 -73.80491 287 ft 4 kts 86°
2026-05-07 00:36 42.73730 -73.80453 287 ft 3 kts 77°
2026-05-07 00:36 42.73745 -73.80431 287 ft 3 kts 27°
2026-05-07 00:37 42.73768 -73.80427 287 ft 3 kts 356°
2026-05-07 00:37 42.73774 -73.80428 287 ft 0 kts 356°
2026-05-07 00:37 42.73777 -73.80428 287 ft 0 kts 356°
2026-05-07 00:39 42.73811 -73.80430 286 ft 26 kts 358°
2026-05-07 00:39 42.74239 -73.80447 283 ft 95 kts 358°
2026-05-07 00:39 42.75120 -73.80488 279 ft 153 kts 358°
2026-05-07 00:39 42.76252 -73.80555 732 ft 165 kts 358°
2026-05-07 00:40 42.77373 -73.80589 1442 ft 167 kts 356°
2026-05-07 00:40 42.78626 -73.80493 1846 ft 190 kts 15°
2026-05-07 00:40 42.79617 -73.79306 2407 ft 201 kts 63°
2026-05-07 00:40 42.79637 -73.77523 3238 ft 192 kts 110°
2026-05-07 00:41 42.78743 -73.76177 3669 ft 201 kts 155°
2026-05-07 00:41 42.77380 -73.75837 4166 ft 199 kts 180°
2026-05-07 00:41 42.76018 -73.75711 4745 ft 202 kts 181°
2026-05-07 00:41 42.74592 -73.75628 5099 ft 214 kts 183°
2026-05-07 00:42 42.73003 -73.75601 5304 ft 234 kts 182°
2026-05-07 00:42 42.71315 -73.75400 5711 ft 249 kts 176°
2026-05-07 00:42 42.69588 -73.75044 6295 ft 255 kts 175°
2026-05-07 00:42 42.67821 -73.74684 7031 ft 256 kts 177°
2026-05-07 00:43 42.66011 -73.74363 7446 ft 269 kts 178°
2026-05-07 00:43 42.64141 -73.74055 7988 ft 277 kts 178°
2026-05-07 00:43 42.62234 -73.73741 8716 ft 277 kts 179°
2026-05-07 00:43 42.60333 -73.73420 9507 ft 275 kts 180°
2026-05-07 00:44 42.58424 -73.73101 10124 ft 279 kts 180°
2026-05-07 00:44 42.56460 -73.72791 10529 ft 291 kts 180°
2026-05-07 00:44 42.54389 -73.72474 10955 ft 303 kts 180°
2026-05-07 00:44 42.52259 -73.72146 11231 ft 319 kts 180°
2026-05-07 00:45 42.49989 -73.71786 11527 ft 333 kts 179°
2026-05-07 00:45 42.47613 -73.71390 11781 ft 350 kts 179°
2026-05-07 00:45 42.45144 -73.70983 12081 ft 364 kts 179°
2026-05-07 00:45 42.42585 -73.70609 12409 ft 376 kts 180°
2026-05-07 00:46 42.39974 -73.70188 13099 ft 378 kts 180°
2026-05-07 00:46 42.37371 -73.69752 13806 ft 379 kts 180°
2026-05-07 00:46 42.34723 -73.69305 14383 ft 385 kts 180°
2026-05-07 00:46 42.32040 -73.68862 15058 ft 388 kts 181°
2026-05-07 00:47 42.29372 -73.68447 15781 ft 389 kts 180°
2026-05-07 00:47 42.26658 -73.68018 16376 ft 393 kts 180°
2026-05-07 00:47 42.23910 -73.67577 16843 ft 401 kts 180°
2026-05-07 00:47 42.21136 -73.67127 17517 ft 402 kts 180°
2026-05-07 00:48 42.18368 -73.66675 18113 ft 405 kts 180°
2026-05-07 00:48 42.15570 -73.66218 18566 ft 411 kts 180°
2026-05-07 00:48 42.12692 -73.65752 19055 ft 417 kts 180°
2026-05-07 00:48 42.09811 -73.65286 19691 ft 419 kts 181°
2026-05-07 00:49 42.06885 -73.64817 20198 ft 423 kts 181°
2026-05-07 00:49 42.03957 -73.64352 20626 ft 429 kts 182°
2026-05-07 00:49 42.00977 -73.63883 21156 ft 432 kts 182°
2026-05-07 00:49 41.97974 -73.63410 21597 ft 437 kts 182°
2026-05-07 00:50 41.94945 -73.62929 22156 ft 439 kts 183°
2026-05-07 00:50 41.91866 -73.62440 22577 ft 444 kts 183°
2026-05-07 00:50 41.88772 -73.61951 23060 ft 448 kts 183°
2026-05-07 00:50 41.85672 -73.61464 23425 ft 453 kts 184°
2026-05-07 00:51 41.82516 -73.60963 24035 ft 453 kts 184°
2026-05-07 00:51 41.79311 -73.60460 24310 ft 461 kts 184°
2026-05-07 00:51 41.76175 -73.59977 24931 ft 458 kts 185°
2026-05-07 00:51 41.72982 -73.59618 25327 ft 459 kts 188°
2026-05-07 00:52 41.69797 -73.59440 25642 ft 461 kts 189°
2026-05-07 00:52 41.66583 -73.59345 26059 ft 463 kts 190°
2026-05-07 00:52 41.63366 -73.59264 26999 ft 454 kts 191°
2026-05-07 00:52 41.60230 -73.59175 27848 ft 446 kts 191°
2026-05-07 00:53 41.57150 -73.59086 28371 ft 446 kts 192°
2026-05-07 00:53 41.54031 -73.59001 28801 ft 447 kts 192°
2026-05-07 00:53 41.50942 -73.58907 29406 ft 444 kts 192°
2026-05-07 00:53 41.47860 -73.58802 29757 ft 445 kts 192°
2026-05-07 00:54 41.41643 -73.58583 29825 ft 448 kts 192°
2026-05-07 00:54 41.35489 -73.58616 29826 ft 429 kts 199°
2026-05-07 00:55 41.32633 -73.59296 29830 ft 410 kts 208°
2026-05-07 00:55 41.29961 -73.60599 29833 ft 400 kts 216°
2026-05-07 00:55 41.25300 -73.64300 29825 ft 385 kts 226°
2026-05-07 00:56 41.23320 -73.66511 29830 ft 374 kts 233°
2026-05-07 00:56 41.21558 -73.69033 29830 ft 368 kts 237°
2026-05-07 00:56 41.18377 -73.74281 29826 ft 366 kts 239°
2026-05-07 00:57 41.15213 -73.79617 29828 ft 368 kts 238°
2026-05-07 00:57 41.12091 -73.84896 29827 ft 363 kts 239°
2026-05-07 00:58 41.08983 -73.90171 29826 ft 367 kts 239°
2026-05-07 00:58 41.05849 -73.95451 29831 ft 364 kts 239°
2026-05-07 00:59 41.01156 -74.03316 29830 ft 364 kts 240°
2026-05-07 01:00 40.98032 -74.08540 29831 ft 367 kts 240°
2026-05-07 01:00 40.94886 -74.13788 29833 ft 366 kts 239°
2026-05-07 01:01 40.91788 -74.18948 29835 ft 364 kts 240°
2026-05-07 01:01 40.88670 -74.24132 29837 ft 367 kts 239°